Terminal Aerodrome Forecast
Issued by NWS

Home | Current Version | Previous Version | Text Only | Print | Product List | Glossary On
Versions: 1 2 3 4 5 6 7 8 9 10 11 12 13 14 15 16 17 18 19 20 21 22 23 24 25 26 27 28
000
FTUS45 KTWC 281700
TAFOLS
TAF
KOLS 281728Z 2818/0118 18013G23KT P6SM FEW030 BKN050
     FM282000 18020G30KT P6SM BKN050
     FM010300 18010KT P6SM BKN050=

USA.gov is the U.S. government's official web portal to all federal, state and local government web resources and services.